User: anonymous   Login
Location: ?????????
(53.2086°N, 54.0693°E)
Time: 09:01:57
(UTC+00:00)
Language:

USA 215 - Orbit

View from above orbital plane
View from above orbital plane
View from above satellite
View from above satellite

Ground track
Ground track

The orbit data is extracted from the following two-line orbital elements,

1 37162U 10046A   20037.23596134 0.00000000  00000-0  00000-0 0    08
2 37162 122.9993 287.2162 0004201 145.6890 214.3110 13.41417367    03
Epoch (UTC): 06 February 2020 05:39:47
Eccentricity: 0.0004201
inclination: 122.9993°
perigee height: 1101 km
apogee height: 1107 km
right ascension of ascending node: 287.2162°
argument of perigee: 145.6890°
revolutions per day: 13.41417367
mean anomaly at epoch: 214.3110°
orbit number at epoch: 0

The dashed part of the orbit path shows where the satellite is in the earth's shadow,  

DLR